Torna al catalogo

CZ-6A DEB

AttivoSSO
NORAD 55536·DEBRIS·🇨🇳 China

Lanciato Nov 11, 2022 da Taiyuan Satellite Launch Center

Loading…

Prossimi Passaggi (prossime 24 ore)

TLE

AggiornatoSource: Space-Track

Epoca: Sep 13, 2026, 23:46 UTC

1 55536U 22151YJ  26256.99043178  .00003270  00000-0  13521-2 0  9993
2 55536  98.7992 269.2861 0045123  55.6410 304.9026 14.26817262193107

Traccia CZ-6A DEB in tempo reale con AllMySat

Download on the App Store